Location: Hopkins Observatory
(42.6965°N, 73.1843°W)
Time: 07:26:48
(UTC-05:00)

Amateur Radio Satellites - All Passes

Search period start: 07 December 2016 06:56
Search period end: 08 December 2016 06:56
Location: Hopkins Observatory, 42.6965°N, 73.1843°W

Satellite Date Start Highest point End Downlink Frequencies (MHz)
Time Altitude Azimuth
AIST 2 07 Dec 06:57:41 07:01:08 26° 114° (ESE) 07:04:36 435.215
AIST 1 07 Dec 07:02:25 07:06:38 46° 267° (W) 07:10:50
CUTE-I 07 Dec 07:02:34 07:07:36 44° 291° (WNW) 07:12:36 437.470
BRITE-PL 07 Dec 07:05:11 07:07:10 12° 301° (WNW) 07:09:10 437.365/2234.400
YUBILEINY 07 Dec 07:18:50 07:26:32 35° 276° (W) 07:34:13 435.215
NOAA 18 07 Dec 07:21:25 07:26:45 50° 291° (WNW) 07:32:03 137.9125
LilacSat-2 07 Dec 07:21:46 07:23:53 15° 295° (WNW) 07:26:01 437.200
NOAA 15 07 Dec 07:21:59 07:26:24 28° 295° (WNW) 07:30:50 137.62
RS-15 07 Dec 07:24:14 07:36:01 85° 120° (ESE) 07:48:23 29.354- 29.394
Cubesat XI-IV 07 Dec 07:29:22 07:33:48 27° 296° (WNW) 07:38:12 437.490
CUTE 1.7 + AOD 2 07 Dec 07:34:33 07:38:46 65° 101° (E) 07:42:57 437.475
HO-68 07 Dec 07:38:34 07:45:45 66° 103° (ESE) 07:52:53 435.675
Cosmos 2504 07 Dec 07:41:32 07:49:49 48° 272° (W) 07:57:39 435.465 / 435.565
ZACube-1 07 Dec 07:41:49 07:43:07 11° 89° (E) 07:44:25 437.345
Cosmos 2491 07 Dec 07:47:18 07:55:39 47° 286° (WNW) 08:04:01 435.465 / 435.565
CINEMA 3 07 Dec 07:47:36 07:52:20 57° 287° (WNW) 07:56:50 145.822/145.860
FUNcube-1 07 Dec 07:48:24 07:50:10 12° 89° (E) 07:51:55 145.935
AAUSAT CUBESAT 2 07 Dec 07:52:31 07:56:20 35° 97° (E) 08:00:08 437.432
CANX-2 07 Dec 07:52:51 07:57:03 67° 285° (WNW) 08:01:15 2200.000
TIGRISAT 07 Dec 07:54:52 07:57:10 14° 61° (ENE) 07:59:28 435.000
ANTELSAT 07 Dec 07:56:19 07:58:55 15° 62° (ENE) 08:01:30 437.575/2403.000
CUBEBUG 2 07 Dec 07:57:31 08:01:45 45° 98° (E) 08:05:50 437.445
PRISM 07 Dec 08:04:19 08:08:22 70° 74° (ENE) 08:12:27 437.425
SEEDS 07 Dec 08:15:45 08:19:55 63° 285° (WNW) 08:24:03 437.485
Oscar 11 07 Dec 08:15:58 08:19:34 25° 95° (E) 08:23:07 145.826/435.025
DOVE 4 07 Dec 08:17:41 08:19:23 12° 303° (WNW) 08:21:06 437.250
COMPASS 1 07 Dec 08:23:47 08:27:57 78° 284° (WNW) 08:32:07 437.405
AO-85 07 Dec 08:29:38 08:30:31 11° 34° (NNE) 08:31:24 145.980
AIST 2 07 Dec 08:35:45 08:39:29 32° 312° (NW) 08:43:16 435.215
UWE-3 07 Dec 08:37:20 08:41:39 81° 101° (E) 08:45:51 435.000/436.395/437.385
DELFI C3 07 Dec 08:41:15 08:43:48 16° 92° (E) 08:46:20 145.870
JAS-2 07 Dec 08:56:04 08:59:58 18° 61° (ENE) 09:03:38 435.910
HUMSAT D 07 Dec 08:58:06 09:00:03 13° 91° (E) 09:01:59 437.325/437.525
UNISAT 6 07 Dec 08:59:02 09:03:40 61° 74° (ENE) 09:08:15 437.425
CUSAT 1 07 Dec 09:10:28 09:13:35 83° 283° (WNW) 09:16:16 437.405
CUTE 1.7 + AOD 2 07 Dec 09:12:18 09:14:04 12° 298° (WNW) 09:15:49 437.475
ZACube-1 07 Dec 09:15:40 09:19:51 62° 286° (WNW) 09:23:57 437.345
FUNcube-1 07 Dec 09:22:39 09:26:47 56° 287° (WNW) 09:30:50 145.935
NANOSAT C BR1 07 Dec 09:23:10 09:24:43 12° 61° (ENE) 09:26:17 145.865
HO-68 07 Dec 09:27:08 09:32:55 27° 302° (WNW) 09:38:42 435.675
AAUSAT CUBESAT 2 07 Dec 09:28:31 09:31:35 20° 294° (WNW) 09:34:39 437.432
TIGRISAT 07 Dec 09:28:35 09:33:16 72° 258° (WSW) 09:37:55 435.000
QB50P2 07 Dec 09:29:08 09:31:43 16° 64° (ENE) 09:34:19 145.880/145.840
POLYITAN 1 07 Dec 09:29:46 09:32:15 15° 63° (ENE) 09:34:44 437.675
ANTELSAT 07 Dec 09:30:26 09:35:05 65° 259° (WSW) 09:39:43 437.575/2403.000
PCSat 07 Dec 09:33:08 09:35:12 12° 102° (ESE) 09:37:17 145.827
CUBEBUG 2 07 Dec 09:35:06 09:38:00 17° 296° (WNW) 09:40:50 437.445
RS-15 07 Dec 09:39:08 09:50:04 38° 328° (NNW) 10:01:22 29.354- 29.394
QB50P1 07 Dec 09:41:39 09:44:44 20° 65° (ENE) 09:47:51 145.935-145.965
DUCHIFAT 1 07 Dec 09:43:13 09:46:04 18° 65° (ENE) 09:48:55 145.980
Oscar 11 07 Dec 09:51:56 09:55:40 29° 291° (WNW) 09:59:24 145.826/435.025
GONETS M04 07 Dec 09:59:47 10:06:31 24° 64° (ENE) 10:13:13
POPSAT HIP 1 07 Dec 10:02:29 10:06:16 31° 69° (ENE) 10:10:04 437.405
AO-85 07 Dec 10:07:46 10:11:45 70° 55° (NE) 10:15:36 145.980
DANDE 07 Dec 10:07:48 10:12:18 74° 278° (W) 10:15:44 436.750
DELFI C3 07 Dec 10:15:03 10:18:46 39° 288° (WNW) 10:22:29 145.870
UWE-3 07 Dec 10:16:48 10:17:25 10° 300° (WNW) 10:18:01 435.000/436.395/437.385
ESTCUBE 1 07 Dec 10:31:29 10:34:57 21° 94° (E) 10:38:25 437.505/2401.250
HUMSAT D 07 Dec 10:32:00 10:35:58 50° 287° (WNW) 10:39:54 437.325/437.525
BUGSAT 1 07 Dec 10:34:01 10:37:25 24° 67° (ENE) 10:40:51 437.445
Cosmos 2499 07 Dec 10:36:52 10:44:57 42° 72° (ENE) 10:52:28 435.465 / 435.565
JAS-2 07 Dec 10:38:07 10:44:34 76° 257° (WSW) 10:50:18 435.910
UNISAT 6 07 Dec 10:38:12 10:40:44 14° 270° (W) 10:43:16 437.425
CUBEBUG 1 07 Dec 10:54:46 10:58:19 23° 94° (E) 11:01:50 437.445
NANOSAT C BR1 07 Dec 10:55:36 10:59:51 72° 258° (WSW) 11:04:08 145.865
QB50P2 07 Dec 11:02:57 11:07:06 51° 260° (W) 11:11:19 145.880/145.840
POLYITAN 1 07 Dec 11:03:23 11:07:35 54° 260° (W) 11:11:50 437.675
50 SAT 07 Dec 11:06:09 11:08:01 14° 92° (E) 11:09:53 437.505
VELOX 1 07 Dec 11:09:10 11:12:38 22° 94° (E) 11:16:04 145.980
Oscar 19 07 Dec 11:11:44 11:15:12 19° 61° (ENE) 11:18:40 437.125/150
PCSat 07 Dec 11:12:21 11:17:46 90° 127° (SE) 11:23:14 145.827
QB50P1 07 Dec 11:16:13 11:20:14 39° 262° (W) 11:24:16 145.935-145.965
DUCHIFAT 1 07 Dec 11:17:20 11:21:24 44° 261° (W) 11:25:30 145.980
DX 1 07 Dec 11:18:46 11:21:09 14° 91° (E) 11:23:32 434.975-435.025
Gurwin Techsat 1B 07 Dec 11:20:32 11:22:34 12° 57° (ENE) 11:24:36 435.225
UKube-1 07 Dec 11:23:54 11:25:25 12° 90° (E) 11:26:57 .
SPROUT 07 Dec 11:31:56 11:35:30 25° 95° (E) 11:39:02 437.525
POPSAT HIP 1 07 Dec 11:38:35 11:42:03 24° 265° (W) 11:45:32 437.405
GONETS M04 07 Dec 11:55:36 12:04:18 78° 265° (W) 12:13:02
RS-15 07 Dec 11:57:46 12:07:27 25° 2° (N) 12:17:11 29.354- 29.394
AO-7 07 Dec 11:58:48 12:01:59 13° 41° (NE) 12:05:11 29.400- 29.500
BEESAT 3 07 Dec 12:05:19 12:08:22 20° 44° (NE) 12:11:23 437.485
ESTCUBE 1 07 Dec 12:07:42 12:11:52 38° 290° (WNW) 12:16:02 437.505/2401.250
AISAT 07 Dec 12:07:57 12:12:28 85° 282° (WNW) 12:16:55 437.250
BUGSAT 1 07 Dec 12:08:52 12:12:38 31° 263° (W) 12:16:27 437.445
JAS-2 07 Dec 12:29:58 12:30:19 10° 272° (W) 12:30:40 435.910
Cosmos 2499 07 Dec 12:30:09 12:38:03 43° 273° (W) 12:45:25 435.465 / 435.565
CUBEBUG 1 07 Dec 12:30:37 12:34:38 34° 291° (WNW) 12:38:38 437.445
BEESAT 2 07 Dec 12:37:29 12:40:35 21° 44° (NE) 12:43:40 435.950
50 SAT 07 Dec 12:38:10 12:41:28 36° 288° (WNW) 12:44:46 437.505
VELOX 1 07 Dec 12:45:04 12:49:11 37° 290° (WNW) 12:53:17 145.980
TISAT 1 07 Dec 12:48:40 12:52:18 27° 96° (E) 12:55:54 437.305
Oscar 19 07 Dec 12:48:58 12:54:01 60° 259° (WSW) 12:59:08 437.125/150
DX 1 07 Dec 12:53:21 12:57:40 54° 288° (WNW) 13:01:57 434.975-435.025
Gurwin Techsat 1B 07 Dec 12:56:20 13:01:40 82° 74° (ENE) 13:07:01 435.225
UKube-1 07 Dec 12:57:34 13:01:54 65° 286° (WNW) 13:06:11 .
PCSat 07 Dec 12:58:18 13:01:56 18° 320° (NW) 13:05:34 145.827
SPROUT 07 Dec 13:07:40 13:11:25 30° 291° (WNW) 13:15:07 437.525
ITAMSAT 1 07 Dec 13:20:58 13:25:38 34° 67° (ENE) 13:30:17 435.822/435.867
SWISSCUBE 07 Dec 13:24:25 13:27:16 16° 91° (E) 13:30:06 437.505
BEESAT 07 Dec 13:28:21 13:31:08 15° 91° (E) 13:33:56 436.000
AUBIESAT-1 07 Dec 13:37:44 13:39:57 13° 94° (E) 13:42:08 437.475
BEESAT 3 07 Dec 13:42:23 13:46:12 45° 242° (WSW) 13:49:59 437.485
AO-7 07 Dec 13:44:55 13:52:50 51° 63° (ENE) 14:00:48 29.400- 29.500
M-CUBED/EXP-1 PRIME 07 Dec 13:50:07 13:53:49 23° 98° (E) 13:57:22 437.505
GONETS M04 07 Dec 13:55:15 13:59:34 15° 286° (WNW) 14:03:55
ITUPSAT 1 07 Dec 13:55:59 14:00:07 28° 96° (E) 14:04:12 437.325
RS-15 07 Dec 14:13:03 14:24:36 42° 36° (NE) 14:35:54 29.354- 29.394
BEESAT 2 07 Dec 14:14:43 14:18:35 45° 242° (WSW) 14:22:25 435.950
ISS 07 Dec 14:19:53 14:20:40 11° 129° (SE) 14:21:26 145.825
MOZHAYETS 4 07 Dec 14:21:32 14:23:39 13° 90° (E) 14:25:45
TISAT 1 07 Dec 14:24:19 14:27:51 26° 292° (WNW) 14:31:21 437.305
Gurwin Techsat 1B 07 Dec 14:40:00 14:42:14 13° 272° (W) 14:44:30 435.225
HORYU 2 07 Dec 14:55:25 14:56:38 11° 59° (ENE) 14:57:50 437.375
O/OREOS (USA 219) 07 Dec 14:59:10 15:03:19 35° 105° (ESE) 15:07:27 437.305
BRITE-PL 07 Dec 15:00:08 15:02:35 15° 61° (ENE) 15:05:08 437.365/2234.400
ITAMSAT 1 07 Dec 15:00:28 15:05:04 31° 264° (W) 15:09:42 435.822/435.867
SWISSCUBE 07 Dec 15:00:45 15:05:25 57° 288° (WNW) 15:10:03 437.505
BEESAT 07 Dec 15:04:37 15:09:18 58° 287° (WNW) 15:13:57 436.000
AUBIESAT-1 07 Dec 15:10:13 15:14:48 66° 291° (WNW) 15:19:10 437.475
AIST 2 07 Dec 15:17:47 15:21:21 26° 46° (NE) 15:24:54 435.215
M-CUBED/EXP-1 PRIME 07 Dec 15:24:00 15:28:23 40° 295° (WNW) 15:32:36 437.505
ITUPSAT 1 07 Dec 15:33:43 15:37:55 32° 293° (WNW) 15:42:06 437.325
Cubesat XI-IV 07 Dec 15:36:15 15:37:41 11° 55° (NE) 15:39:08 437.490
AO-7 07 Dec 15:38:13 15:45:45 38° 262° (W) 15:53:24 29.400- 29.500
ISS 07 Dec 15:53:22 15:56:39 87° 138° (SE) 15:59:58 145.825
MOZHAYETS 4 07 Dec 15:56:43 16:01:15 63° 286° (WNW) 16:05:44
Cosmos 2491 07 Dec 16:00:35 16:06:44 21° 61° (ENE) 16:12:51 435.465 / 435.565
CUBESAT XI-V 07 Dec 16:04:07 16:07:51 23° 94° (E) 16:11:35 437.345
GOMX 1 07 Dec 16:04:07 16:08:04 28° 66° (ENE) 16:12:18 467.674
DOVE 4 07 Dec 16:07:58 16:10:43 15° 60° (ENE) 16:13:32 437.250
KKS-1 07 Dec 16:15:15 16:19:47 84° 106° (ESE) 16:24:15 437.445
STARS 07 Dec 16:16:56 16:21:07 40° 98° (E) 16:25:15 437.465
RS-15 07 Dec 16:25:58 16:38:19 77° 242° (WSW) 16:50:14 29.354- 29.394
HO-68 07 Dec 16:26:48 16:28:25 11° 46° (NE) 16:30:02 435.675
HORYU 2 07 Dec 16:27:59 16:32:29 85° 258° (WSW) 16:36:59 437.375
LilacSat-2 07 Dec 16:29:12 16:32:18 24° 69° (ENE) 16:35:25 437.200
BRITE-PL 07 Dec 16:36:14 16:40:29 59° 260° (W) 16:45:06 437.365/2234.400
O/OREOS (USA 219) 07 Dec 16:39:00 16:42:47 25° 303° (WNW) 16:46:34 437.305
CUTE-I 07 Dec 16:45:18 16:50:22 44° 69° (ENE) 16:55:26 437.470
AIST 2 07 Dec 16:56:00 16:59:55 37° 244° (WSW) 17:03:48 435.215
NOAA 15 07 Dec 17:02:35 17:07:46 69° 73° (ENE) 17:13:00 137.62
NOAA 18 07 Dec 17:08:07 17:13:24 47° 69° (ENE) 17:18:42 137.9125
Cubesat XI-IV 07 Dec 17:11:27 17:16:49 74° 74° (ENE) 17:22:12 437.490
CINEMA 3 07 Dec 17:13:53 17:17:09 18° 62° (ENE) 17:20:27 145.822/145.860
ISS 07 Dec 17:30:46 17:33:29 23° 344° (NNW) 17:36:13 145.825
CUBESAT XI-V 07 Dec 17:41:02 17:45:19 37° 290° (WNW) 17:49:36 437.345
GOMX 1 07 Dec 17:41:55 17:46:02 32° 265° (W) 17:50:28 467.674
DOVE 4 07 Dec 17:42:52 17:47:40 74° 258° (WSW) 17:52:49 437.250
STARS 07 Dec 17:53:55 17:57:11 21° 295° (WNW) 18:00:26 437.465
KKS-1 07 Dec 17:54:20 17:55:39 11° 301° (WNW) 17:56:57 437.445
Cosmos 2491 07 Dec 17:56:04 18:04:50 89° 263° (W) 18:13:34 435.465 / 435.565
LilacSat-2 07 Dec 18:03:18 18:06:31 25° 265° (W) 18:09:44 437.200
HO-68 07 Dec 18:07:39 18:14:31 52° 66° (ENE) 18:21:26 435.675
PCSat 07 Dec 18:17:17 18:20:43 17° 39° (NE) 18:24:10 145.827
YUBILEINY 07 Dec 18:23:03 18:31:30 59° 91° (E) 18:40:02 435.215
CUTE-I 07 Dec 18:26:12 18:30:34 25° 266° (W) 18:34:58 437.470
Cosmos 2504 07 Dec 18:27:17 18:34:24 32° 82° (E) 18:41:48 435.465 / 435.565
CUTE 1.7 + AOD 2 07 Dec 18:27:39 18:31:42 49° 73° (ENE) 18:35:46 437.475
ZACube-1 07 Dec 18:38:22 18:40:10 12° 62° (ENE) 18:41:57 437.345
SO-50 07 Dec 18:39:32 18:43:23 25° 113° (ESE) 18:47:12 436.795
RS-15 07 Dec 18:41:07 18:48:36 19° 264° (W) 18:55:58 29.354- 29.394
AAUSAT CUBESAT 2 07 Dec 18:43:34 18:46:57 26° 68° (ENE) 18:50:22 437.432
STRAND 1 07 Dec 18:44:06 18:48:48 36° 97° (E) 18:53:27 437.568
FUNcube-1 07 Dec 18:44:45 18:46:50 13° 62° (ENE) 18:48:53 145.935
NOAA 15 07 Dec 18:45:04 18:48:02 15° 270° (W) 18:51:01 137.62
CANX-2 07 Dec 18:45:51 18:50:05 88° 263° (W) 18:54:18 2200.000
CINEMA 3 07 Dec 18:48:51 18:53:45 61° 260° (W) 18:58:45 145.822/145.860
NOAA 18 07 Dec 18:49:47 18:54:15 25° 266° (W) 18:58:45 137.9125
Cubesat XI-IV 07 Dec 18:54:29 18:57:25 15° 270° (W) 19:00:22 437.490
CUBEBUG 2 07 Dec 18:55:32 19:00:02 44° 72° (ENE) 19:04:29 437.445
SEEDS 07 Dec 19:07:39 19:11:49 87° 259° (W) 19:16:01 437.485
ISS 07 Dec 19:08:29 19:10:49 17° 5° (N) 19:13:09 145.825
Oscar 11 07 Dec 19:11:39 19:15:00 22° 66° (ENE) 19:18:19 145.826/435.025
COMPASS 1 07 Dec 19:14:45 19:18:51 75° 76° (ENE) 19:22:59 437.405
DELFI C3 07 Dec 19:29:14 19:30:23 11° 62° (ENE) 19:31:32 145.870
AIST 1 07 Dec 19:31:51 19:36:10 82° 280° (W) 19:40:33
UWE-3 07 Dec 19:34:08 19:38:47 71° 75° (ENE) 19:43:22 435.000/436.395/437.385
CUSAT 1 07 Dec 19:38:54 19:42:36 56° 79° (E) 19:47:28 437.405
HUMSAT D 07 Dec 19:51:00 19:52:24 11° 62° (ENE) 19:53:48 437.325/437.525
Cosmos 2491 07 Dec 19:55:03 20:00:21 18° 284° (WNW) 20:05:39 435.465 / 435.565
HO-68 07 Dec 19:56:16 20:02:29 31° 265° (W) 20:08:45 435.675
PCSat 07 Dec 19:59:30 20:04:58 83° 60° (ENE) 20:10:24 145.827
CUTE 1.7 + AOD 2 07 Dec 20:05:28 20:07:49 15° 269° (W) 20:10:10 437.475
ZACube-1 07 Dec 20:11:18 20:15:51 76° 257° (WSW) 20:20:21 437.345
FUNcube-1 07 Dec 20:17:59 20:22:30 70° 258° (WSW) 20:26:57 145.935
AAUSAT CUBESAT 2 07 Dec 20:18:53 20:22:20 26° 265° (W) 20:25:50 437.432
Cosmos 2504 07 Dec 20:18:56 20:27:12 59° 283° (WNW) 20:35:58 435.465 / 435.565
SO-50 07 Dec 20:19:05 20:23:38 44° 310° (NW) 20:28:08 436.795
YUBILEINY 07 Dec 20:21:14 20:28:46 32° 292° (WNW) 20:36:25 435.215
STRAND 1 07 Dec 20:23:31 20:27:50 29° 294° (WNW) 20:32:09 437.568
CUBEBUG 2 07 Dec 20:33:17 20:36:48 20° 267° (W) 20:40:19 437.445
DANDE 07 Dec 20:43:04 20:45:56 65° 80° (E) 20:49:28 436.750
ISS 07 Dec 20:44:54 20:48:00 36° 24° (NNE) 20:51:05 145.825
Oscar 11 07 Dec 20:46:59 20:50:55 34° 263° (W) 20:54:52 145.826/435.025
UNISAT 6 07 Dec 20:52:34 20:53:53 11° 89° (E) 20:55:11 437.425
DELFI C3 07 Dec 21:00:47 21:04:40 63° 259° (W) 21:08:35 145.870
UWE-3 07 Dec 21:13:51 21:15:40 12° 271° (W) 21:17:30 435.000/436.395/437.385
PRISM 07 Dec 21:19:57 21:24:07 79° 286° (WNW) 21:28:17 437.425
TIGRISAT 07 Dec 21:20:15 21:23:37 21° 93° (E) 21:26:55 435.000
ANTELSAT 07 Dec 21:22:04 21:25:37 24° 94° (E) 21:29:05 437.575/2403.000
CUSAT 1 07 Dec 21:22:57 21:24:24 12° 268° (W) 21:25:56 437.405
HUMSAT D 07 Dec 21:23:16 21:27:27 70° 258° (WSW) 21:31:37 437.325/437.525
ESTCUBE 1 07 Dec 21:31:53 21:35:19 22° 66° (ENE) 21:38:46 437.505/2401.250
AISAT 07 Dec 21:33:27 21:34:15 10° 59° (ENE) 21:35:02 437.250
PCSat 07 Dec 21:44:59 21:47:36 14° 257° (WSW) 21:50:13 145.827
CUBEBUG 1 07 Dec 21:51:37 21:54:56 22° 66° (ENE) 21:58:17 437.445
VELOX 1 07 Dec 22:07:17 22:10:39 22° 65° (ENE) 22:14:04 145.980
DX 1 07 Dec 22:15:20 22:17:46 15° 62° (ENE) 22:20:12 434.975-435.025
Cosmos 2504 07 Dec 22:19:22 22:22:50 13° 307° (NW) 22:26:22 435.465 / 435.565
UKube-1 07 Dec 22:19:29 22:21:11 12° 61° (ENE) 22:22:55 .
ISS 07 Dec 22:21:26 22:24:29 34° 222° (SW) 22:27:31 145.825
SPROUT 07 Dec 22:26:15 22:29:34 22° 66° (ENE) 22:32:53 437.525
UNISAT 6 07 Dec 22:26:43 22:31:05 67° 286° (WNW) 22:35:21 437.425
NANOSAT C BR1 07 Dec 22:40:13 22:43:00 17° 92° (E) 22:45:46 145.865
QB50P2 07 Dec 22:47:28 22:50:54 23° 95° (E) 22:54:18 145.880/145.840
POLYITAN 1 07 Dec 22:48:01 22:51:22 22° 94° (E) 22:54:40 437.675
TIGRISAT 07 Dec 22:56:25 23:00:24 35° 291° (WNW) 23:04:18 435.000
ANTELSAT 07 Dec 22:58:28 23:02:21 31° 291° (WNW) 23:06:10 437.575/2403.000
QB50P1 07 Dec 23:00:07 23:03:52 30° 96° (E) 23:07:35 145.935-145.965
DUCHIFAT 1 07 Dec 23:00:49 23:04:22 26° 95° (E) 23:07:52 145.980
GONETS M04 07 Dec 23:03:02 23:09:45 26° 81° (E) 23:16:26
AISAT 07 Dec 23:05:33 23:09:59 88° 257° (WSW) 23:14:28 437.250
ESTCUBE 1 07 Dec 23:07:45 23:11:53 37° 262° (W) 23:16:04 437.505/2401.250
50 SAT 07 Dec 23:13:31 23:17:01 86° 259° (WSW) 23:20:33 437.505
Cosmos 2499 07 Dec 23:13:39 23:21:06 34° 84° (E) 23:28:45 435.465 / 435.565
POPSAT HIP 1 07 Dec 23:21:34 23:25:42 51° 100° (E) 23:29:48 437.405
CUBEBUG 1 07 Dec 23:26:56 23:30:58 37° 262° (W) 23:35:04 437.445
PHONESAT 2.4 07 Dec 23:28:56 23:31:03 21° 159° (SSE) 23:33:09 2401.200-2431.200
JAS-2 07 Dec 23:30:57 23:36:11 88° 105° (ESE) 23:41:41 435.910
O/OREOS (USA 219) 07 Dec 23:31:49 23:32:17 10° 47° (NE) 23:32:45 437.305
TISAT 1 07 Dec 23:41:01 23:44:25 24° 67° (ENE) 23:47:49 437.305
VELOX 1 07 Dec 23:42:48 23:46:53 37° 262° (W) 23:51:01 145.980
DX 1 07 Dec 23:49:12 23:53:29 57° 259° (W) 23:57:48 434.975-435.025
BUGSAT 1 07 Dec 23:49:34 23:53:24 34° 97° (E) 23:57:09 437.445
UKube-1 07 Dec 23:52:21 23:56:38 72° 257° (WSW) 00:00:59 .
SPROUT 08 Dec 00:01:19 00:05:16 35° 263° (W) 00:09:15 437.525
NANOSAT C BR1 08 Dec 00:14:56 00:18:56 42° 289° (WNW) 00:22:53 145.865
QB50P2 08 Dec 00:22:59 00:26:43 30° 291° (WNW) 00:30:25 145.880/145.840
AO-85 08 Dec 00:23:02 00:26:44 21° 113° (ESE) 00:30:15 145.980
AUBIESAT-1 08 Dec 00:23:11 00:26:14 19° 58° (ENE) 00:29:24 437.475
POLYITAN 1 08 Dec 00:23:25 00:27:12 32° 291° (WNW) 00:30:56 437.675
SWISSCUBE 08 Dec 00:31:25 00:34:57 21° 64° (ENE) 00:38:30 437.505
BEESAT 08 Dec 00:35:16 00:38:47 21° 64° (ENE) 00:42:18 436.000
QB50P1 08 Dec 00:36:04 00:39:30 24° 293° (WNW) 00:42:54 145.935-145.965
M-CUBED/EXP-1 PRIME 08 Dec 00:36:21 00:40:03 30° 62° (ENE) 00:43:58 437.505
DUCHIFAT 1 08 Dec 00:36:24 00:40:00 27° 292° (WNW) 00:43:32 145.980
GONETS M04 08 Dec 00:57:03 01:05:44 70° 281° (W) 01:14:26
POPSAT HIP 1 08 Dec 00:58:34 01:01:04 15° 297° (WNW) 01:03:33 437.405
Oscar 19 08 Dec 00:59:39 01:04:38 45° 99° (E) 01:09:36 437.125/150
ITUPSAT 1 08 Dec 01:03:16 01:07:38 37° 69° (ENE) 01:12:01 437.325
PHONESAT 2.4 08 Dec 01:03:23 01:05:58 49° 175° (S) 01:08:33 2401.200-2431.200
Cosmos 2499 08 Dec 01:05:20 01:13:46 57° 284° (WNW) 01:22:32 435.465 / 435.565
O/OREOS (USA 219) 08 Dec 01:07:59 01:12:30 78° 66° (ENE) 01:16:57 437.305
Gurwin Techsat 1B 08 Dec 01:12:10 01:16:51 30° 96° (E) 01:21:29 435.225
TISAT 1 08 Dec 01:16:07 01:19:54 31° 263° (W) 01:23:42 437.305
JAS-2 08 Dec 01:18:31 01:20:36 12° 302° (WNW) 01:22:43 435.910
MOZHAYETS 4 08 Dec 01:24:16 01:26:50 15° 62° (ENE) 01:29:25
BUGSAT 1 08 Dec 01:25:22 01:28:34 21° 294° (WNW) 01:31:41 437.445
ITAMSAT 1 08 Dec 01:36:19 01:36:41 10° 88° (E) 01:37:02 435.822/435.867
AO-7 08 Dec 01:48:20 01:51:56 13° 87° (E) 01:55:31 29.400- 29.500
AUBIESAT-1 08 Dec 01:56:13 02:00:14 47° 256° (WSW) 02:04:33 437.475
AO-85 08 Dec 02:02:10 02:06:55 50° 308° (NW) 02:11:20 145.980
SWISSCUBE 08 Dec 02:07:52 02:12:26 45° 261° (W) 02:17:01 437.505
M-CUBED/EXP-1 PRIME 08 Dec 02:10:55 02:14:28 27° 261° (W) 02:18:15 437.505
BEESAT 08 Dec 02:11:39 02:16:14 46° 261° (W) 02:20:51 436.000
PHONESAT 2.4 08 Dec 02:38:30 02:41:00 38° 191° (SSW) 02:43:30 2401.200-2431.200
Oscar 19 08 Dec 02:39:33 02:43:41 25° 296° (WNW) 02:47:49 437.125/150
ITUPSAT 1 08 Dec 02:41:38 02:45:32 25° 265° (W) 02:49:27 437.325
Gurwin Techsat 1B 08 Dec 02:51:59 02:56:48 36° 293° (WNW) 03:01:36 435.225
MOZHAYETS 4 08 Dec 02:58:57 03:03:30 62° 259° (W) 03:08:03
GONETS M04 08 Dec 02:59:59 03:04:24 15° 304° (WNW) 03:08:50
Cosmos 2499 08 Dec 03:05:59 03:09:10 12° 307° (NW) 03:12:24 435.465 / 435.565
CUBESAT XI-V 08 Dec 03:08:14 03:11:57 25° 67° (ENE) 03:15:42 437.345
SO-50 08 Dec 03:09:33 03:13:32 28° 45° (NE) 03:17:25 436.795
ITAMSAT 1 08 Dec 03:11:40 03:16:53 86° 103° (ESE) 03:22:03 435.822/435.867
KKS-1 08 Dec 03:13:37 03:18:05 84° 75° (ENE) 03:22:36 437.445
STARS 08 Dec 03:13:59 03:18:07 39° 70° (ENE) 03:22:16 437.465
BEESAT 3 08 Dec 03:33:32 03:36:37 22° 113° (ESE) 03:39:43 437.485
AO-7 08 Dec 03:37:42 03:46:06 71° 106° (ESE) 03:54:27 29.400- 29.500
BEESAT 2 08 Dec 04:07:14 04:10:25 24° 113° (ESE) 04:13:38 435.950
PHONESAT 2.4 08 Dec 04:14:34 04:15:47 12° 207° (SSW) 04:17:00 2401.200-2431.200
HORYU 2 08 Dec 04:19:15 04:22:07 17° 92° (E) 04:24:57 437.375
Cosmos 2504 08 Dec 04:20:36 04:23:51 12° 53° (NE) 04:27:03 435.465 / 435.565
YUBILEINY 08 Dec 04:32:28 04:40:01 31° 67° (ENE) 04:47:33 435.215
BRITE-PL 08 Dec 04:39:01 04:44:17 45° 98° (E) 04:49:42 437.365/2234.400
RS-15 08 Dec 04:44:14 04:50:08 15° 94° (E) 04:56:09 29.354- 29.394
CUBESAT XI-V 08 Dec 04:45:00 04:49:10 34° 263° (W) 04:53:22 437.345
SO-50 08 Dec 04:49:54 04:54:03 37° 244° (WSW) 04:58:08 436.795
STARS 08 Dec 04:51:19 04:54:36 20° 266° (W) 04:57:54 437.465
ITAMSAT 1 08 Dec 04:53:08 04:55:36 14° 302° (WNW) 04:58:05 435.822/435.867
CUTE-I 08 Dec 05:02:46 05:05:57 16° 90° (E) 05:09:08 437.470
Cosmos 2491 08 Dec 05:04:21 05:10:32 22° 79° (ENE) 05:16:42 435.465 / 435.565
BEESAT 3 08 Dec 05:10:29 05:14:04 34° 311° (NW) 05:17:41 437.485
NOAA 15 08 Dec 05:17:30 05:21:44 24° 94° (E) 05:25:57 137.62
Cubesat XI-IV 08 Dec 05:28:27 05:32:58 27° 95° (E) 05:37:26 437.490
NOAA 18 08 Dec 05:30:22 05:34:06 18° 92° (E) 05:37:48 137.9125
AO-7 08 Dec 05:31:20 05:38:12 30° 305° (NW) 05:45:03 29.400- 29.500
LilacSat-2 08 Dec 05:35:19 05:38:41 30° 96° (E) 05:42:01 437.200
AIST 1 08 Dec 05:38:24 05:42:07 26° 73° (ENE) 05:45:50
DOVE 4 08 Dec 05:41:16 05:46:00 32° 95° (E) 05:50:34 437.250
GOMX 1 08 Dec 05:41:39 05:47:10 74° 102° (ESE) 05:52:38 467.674
BEESAT 2 08 Dec 05:44:27 05:48:03 33° 311° (NW) 05:51:42 435.950
HORYU 2 08 Dec 05:54:39 05:58:55 47° 289° (WNW) 06:03:08 437.375
STRAND 1 08 Dec 06:00:30 06:05:30 56° 72° (ENE) 06:10:32 437.568
Cosmos 2504 08 Dec 06:10:50 06:19:31 59° 77° (ENE) 06:27:40 435.465 / 435.565
BRITE-PL 08 Dec 06:17:57 06:22:30 28° 294° (WNW) 06:27:13 437.365/2234.400
YUBILEINY 08 Dec 06:28:44 06:37:24 63° 268° (W) 06:46:03 435.215
CANX-2 08 Dec 06:31:20 06:33:46 15° 91° (E) 06:36:13 2200.000
CUTE-I 08 Dec 06:41:10 06:46:29 67° 288° (WNW) 06:51:44 437.470
CINEMA 3 08 Dec 06:43:26 06:47:42 32° 95° (E) 06:51:46 145.822/145.860
SEEDS 08 Dec 06:51:59 06:54:21 15° 91° (E) 06:56:42 437.485
